Saranac Lake, NY

6:25 PM EDT on September 23, 2017 (GMT -0400)
Adirondack Regional

Weather History for KSLK - March, 2012

Change the Weather History Date:

Sunday, March 4, 2012

  Actual Average Record
Temperature  
Mean Temperature 17 °F 19 °F  
Max Temperature 29 °F 33 °F 50 °F (1964)
Min Temperature 5 °F 6 °F -23 °F (2003)
Degree Days  
Heating Degree Days 48 46  
Month to date heating degree days 147 185  
Since 1 July heating degree days 5895 6890  
Cooling Degree Days 0 0  
Month to date cooling degree days 0 0  
Year to date cooling degree days 0 0  
Moisture  
Dew Point 20 °F    
Average Humidity 80    
Maximum Humidity 92    
Minimum Humidity 68    
Precipitation  
Precipitation 0.05 in 0.05 in 0.81 in (1991)
Month to date precipitation 0.18 0.20  
Year to date precipitation 3.87 3.94  
Sea Level Pressure  
Sea Level Pressure 29.52 in    
Wind  
Wind Speed 8 mph (WSW)    
Max Wind Speed 17 mph    
Max Gust Speed 24 mph    
Visibility 4 miles    
Events Fog , Snow    
T = Trace of Precipitation, MM = Missing Value Source: NWS Daily Summary

Daily Weather History Graph

Daily Weather History Graph

Search for Another Location

Airport or City:

Trip Planner

Search our weather history database for the weather conditions in past years. The results will help you decide how hot, cold, wet, or windy it might be!

Date:

Astronomy

Mar. 04, 2012 Rise Set
Actual Time 6:28 AM EST 5:49 PM EST
Civil Twilight 5:59 AM EST 6:18 PM EST
Nautical Twilight 5:25 AM EST 6:52 PM EST
Astronomical Twilight 4:51 AM EST 7:25 PM EST
Moon 1:51 PM EST (3/4) 3:54 AM EST (3/4)
Length of Visible Light 12h 19m
Length of Day
11h 21m
Waxing Gibbous, 83% of the Moon is Illuminated
Mar 4
Waxing Gibbous
Mar 8
Full
Mar 14
Last Quarter
Mar 22
New
Mar 30
First Quarter

Hourly Weather History & Observations

Time (EST) Temp. Windchill Dew Point Humidity Pressure Visibility Wind Dir Wind Speed Gust Speed Precip Events Conditions
12:00 AM 28.4 °F 17.5 °F 24.8 °F 86% 29.46 in 0.8 mi WSW 13.8 mph 21.9 mph 0.00 in Snow Light Snow
12:04 AM 28.4 °F 18.5 °F 24.8 °F 86% 29.46 in 0.5 mi SW 11.5 mph 20.7 mph 0.00 in Fog , Snow Snow
12:12 AM 28.4 °F 18.5 °F 26.6 °F 93% 29.45 in 1.0 mi SW 11.5 mph - 0.00 in Snow Light Snow
12:23 AM 28.4 °F 18.5 °F 26.6 °F 93% 29.45 in 1.5 mi SW 11.5 mph - 0.00 in Snow Light Snow
12:51 AM 28.0 °F 20.0 °F 26.1 °F 92% 29.51 in 0.8 mi WSW 8.1 mph - 0.00 in Snow Light Snow
12:58 AM 28.4 °F 21.2 °F 26.6 °F 93% 29.47 in 0.5 mi Variable 6.9 mph - 0.01 in Fog , Snow Snow
1:11 AM 28.4 °F 19.7 °F 26.6 °F 93% 29.48 in 1.5 mi WSW 9.2 mph - 0.01 in Snow Light Snow
1:25 AM 28.4 °F 19.1 °F 26.6 °F 93% 29.48 in 2.0 mi SW 10.4 mph - 0.01 in Snow Light Snow
1:29 AM 28.4 °F 18.5 °F 26.6 °F 93% 29.48 in 3.0 mi SW 11.5 mph - 0.01 in Snow Light Snow
1:34 AM 28.4 °F 19.7 °F 24.8 °F 86% 29.48 in 1.8 mi WSW 9.2 mph 20.7 mph 0.01 in Snow Light Snow
1:51 AM 28.0 °F 19.3 °F 26.1 °F 92% 29.52 in 1.8 mi SW 9.2 mph - 0.01 in Snow Light Snow
2:07 AM 28.4 °F 20.4 °F 26.6 °F 93% 29.49 in 0.8 mi WSW 8.1 mph - 0.01 in Snow Light Snow
2:20 AM 28.4 °F 19.7 °F 26.6 °F 93% 29.49 in 1.0 mi WSW 9.2 mph 18.4 mph 0.01 in Snow Light Snow
2:42 AM 28.4 °F 18.5 °F 24.8 °F 86% 29.48 in 2.5 mi WSW 11.5 mph 18.4 mph 0.01 in Snow Light Snow
2:51 AM 28.0 °F 18.1 °F 25.0 °F 88% 29.52 in 5.0 mi WSW 11.5 mph 18.4 mph 0.01 in Snow Light Snow
3:01 AM 28.4 °F 19.1 °F 24.8 °F 86% 29.48 in 3.0 mi SW 10.4 mph - 0.00 in Snow Light Snow
3:08 AM 28.4 °F 19.1 °F 24.8 °F 86% 29.48 in 2.0 mi WSW 10.4 mph - 0.00 in Snow Light Snow
3:12 AM 28.4 °F 18.5 °F 24.8 °F 86% 29.48 in 4.0 mi WSW 11.5 mph - 0.00 in Snow Light Snow
3:22 AM 28.4 °F 18.5 °F 24.8 °F 86% 29.48 in 3.0 mi SW 11.5 mph - 0.00 in Snow Light Snow
3:29 AM 28.4 °F 19.7 °F 24.8 °F 86% 29.48 in 4.0 mi SW 9.2 mph - 0.00 in Snow Light Snow
3:44 AM 28.4 °F 20.4 °F 24.8 °F 86% 29.48 in 1.8 mi WSW 8.1 mph - 0.00 in Snow Light Snow
3:51 AM 28.0 °F 20.0 °F 25.0 °F 88% 29.52 in 1.2 mi WSW 8.1 mph - 0.00 in Snow Light Snow
4:07 AM 26.6 °F 18.2 °F 24.8 °F 93% 29.47 in 1.8 mi WSW 8.1 mph - 0.01 in Snow Light Snow
4:13 AM 26.6 °F 19.1 °F 24.8 °F 93% 29.47 in 1.8 mi WSW 6.9 mph - 0.01 in Snow Light Snow
4:22 AM 28.4 °F 20.4 °F 24.8 °F 86% 29.47 in 3.0 mi WSW 8.1 mph 16.1 mph 0.01 in Snow Light Snow
4:32 AM 28.4 °F 19.1 °F 24.8 °F 86% 29.48 in 1.8 mi SW 10.4 mph 18.4 mph 0.01 in Snow Light Snow
4:42 AM 28.4 °F 19.7 °F 24.8 °F 86% 29.48 in 3.0 mi WSW 9.2 mph - 0.01 in Snow Light Snow
4:51 AM 28.0 °F 18.6 °F 24.1 °F 85% 29.53 in 4.0 mi WSW 10.4 mph - 0.01 in Snow Light Snow
5:31 AM 26.6 °F 19.1 °F 24.8 °F 93% 29.48 in 2.5 mi WSW 6.9 mph - 0.00 in Snow Light Snow
5:42 AM 26.6 °F 19.1 °F 24.8 °F 93% 29.49 in 1.2 mi WSW 6.9 mph - 0.00 in Snow Light Snow
5:51 AM 27.0 °F 19.5 °F 24.1 °F 89% 29.54 in 1.5 mi SW 6.9 mph - 0.00 in Snow Light Snow
6:05 AM 26.6 °F 19.1 °F 24.8 °F 93% 29.49 in 2.5 mi SW 6.9 mph - 0.00 in Snow Light Snow
6:11 AM 26.6 °F 18.2 °F 24.8 °F 93% 29.49 in 1.8 mi WSW 8.1 mph - 0.00 in Snow Light Snow
6:25 AM 26.6 °F 19.1 °F 24.8 °F 93% 29.49 in 3.0 mi WSW 6.9 mph - 0.00 in Snow Light Snow
6:36 AM 26.6 °F - 24.8 °F 93% 29.49 in 2.5 mi Calm Calm - 0.00 in Snow Light Snow
6:44 AM 26.6 °F - 24.8 °F 93% 29.50 in 0.8 mi Calm Calm - 0.01 in Snow Light Snow
6:51 AM 27.0 °F 23.0 °F 25.0 °F 92% 29.55 in 0.8 mi Variable 3.5 mph - 0.01 in Snow Light Snow
7:02 AM 26.6 °F 19.1 °F 23.0 °F 86% 29.50 in 1.0 mi WSW 6.9 mph - 0.00 in Snow Light Snow
7:24 AM 26.6 °F 21.2 °F 23.0 °F 86% 29.50 in 2.5 mi WSW 4.6 mph - 0.00 in Snow Light Snow
7:32 AM 26.6 °F 22.6 °F 23.0 °F 86% 29.50 in 5.0 mi WSW 3.5 mph - 0.00 in Snow Light Snow
7:49 AM 26.6 °F 22.6 °F 24.8 °F 93% 29.50 in 4.0 mi SW 3.5 mph - 0.00 in Snow Light Snow
7:51 AM 27.0 °F - 24.1 °F 89% 29.56 in 2.5 mi Calm Calm - 0.00 in Snow Light Snow
7:57 AM 26.6 °F - 24.8 °F 93% 29.50 in 1.2 mi Calm Calm - 0.00 in Snow Light Snow
8:06 AM 26.6 °F - 24.8 °F 93% 29.50 in 1.8 mi Calm Calm - 0.00 in Snow Light Snow
8:13 AM 26.6 °F - 24.8 °F 93% 29.50 in 2.0 mi Calm Calm - 0.00 in Snow Light Snow
8:16 AM 26.6 °F 22.6 °F 24.8 °F 93% 29.50 in 1.8 mi SW 3.5 mph - 0.00 in Snow Light Snow
8:24 AM 26.6 °F 21.2 °F 23.0 °F 86% 29.50 in 1.2 mi WSW 4.6 mph - 0.00 in Snow Light Snow
8:41 AM 26.6 °F 21.2 °F 23.0 °F 86% 29.50 in 2.5 mi West 4.6 mph - 0.00 in Snow Light Snow
8:51 AM 27.0 °F 21.6 °F 23.0 °F 85% 29.55 in 2.5 mi West 4.6 mph - 0.00 in Snow Light Snow
9:01 AM 26.6 °F 20.0 °F 23.0 °F 86% 29.50 in 1.8 mi West 5.8 mph - 0.00 in Snow Light Snow
9:10 AM 26.6 °F 19.1 °F 21.2 °F 80% 29.50 in 2.5 mi West 6.9 mph - 0.00 in Snow Light Snow
9:22 AM 26.6 °F 19.1 °F 21.2 °F 80% 29.50 in 4.0 mi West 6.9 mph - 0.00 in Snow Light Snow
9:29 AM 26.6 °F 20.0 °F 21.2 °F 80% 29.50 in 9.0 mi WSW 5.8 mph - 0.00 in   Overcast
9:36 AM 26.6 °F 20.0 °F 21.2 °F 80% 29.50 in 10.0 mi Variable 5.8 mph - 0.00 in   Overcast
9:51 AM 27.0 °F 18.7 °F 21.0 °F 78% 29.56 in 10.0 mi WSW 8.1 mph - 0.00 in   Overcast
10:29 AM 28.4 °F 19.7 °F 19.4 °F 69% 29.49 in 10.0 mi West 9.2 mph 17.3 mph N/A   Overcast
10:51 AM 28.0 °F 20.8 °F 19.9 °F 72% 29.55 in 10.0 mi Variable 6.9 mph - N/A   Overcast
11:42 AM 28.4 °F 19.7 °F 19.4 °F 69% 29.50 in 10.0 mi WSW 9.2 mph - N/A   Overcast
11:51 AM 28.0 °F 17.0 °F 19.0 °F 69% 29.55 in 10.0 mi WSW 13.8 mph 18.4 mph N/A   Overcast
12:40 PM 26.6 °F 16.2 °F 17.6 °F 69% 29.49 in 10.0 mi West 11.5 mph 18.4 mph 0.00 in   Overcast
12:48 PM 26.6 °F 19.1 °F 15.8 °F 64% 29.49 in 10.0 mi Variable 6.9 mph 18.4 mph 0.00 in   Overcast
12:51 PM 27.0 °F 18.7 °F 17.1 °F 66% 29.55 in 10.0 mi West 8.1 mph 18.4 mph 0.00 in   Overcast
1:51 PM 26.1 °F 16.2 °F 16.0 °F 66% 29.54 in 5.0 mi West 10.4 mph 18.4 mph 0.00 in Snow Light Snow
2:51 PM 25.0 °F 13.1 °F 16.0 °F 69% 29.54 in 7.0 mi SW 13.8 mph 19.6 mph 0.00 in Snow Light Snow
3:51 PM 25.0 °F 15.5 °F 15.1 °F 66% 29.55 in 4.0 mi WSW 9.2 mph 19.6 mph 0.00 in Snow Light Snow
4:16 PM 24.8 °F 15.3 °F 15.8 °F 69% 29.50 in 2.5 mi West 9.2 mph 17.3 mph 0.00 in Snow Light Snow
4:19 PM 24.8 °F 16.1 °F 17.6 °F 74% 29.50 in 1.5 mi West 8.1 mph 17.3 mph 0.00 in Snow Light Snow
4:30 PM 23.0 °F 14.7 °F 17.6 °F 80% 29.51 in 1.2 mi West 6.9 mph - 0.00 in Snow Light Snow
4:38 PM 23.0 °F 14.7 °F 17.6 °F 80% 29.50 in 2.0 mi Variable 6.9 mph - 0.00 in Snow Light Snow
4:46 PM 23.0 °F 14.7 °F 17.6 °F 80% 29.51 in 9.0 mi WSW 6.9 mph - 0.00 in   Overcast
4:51 PM 23.0 °F 13.9 °F 17.1 °F 78% 29.57 in 2.0 mi SW 8.1 mph - 0.00 in Snow Light Snow
4:55 PM 23.0 °F 13.1 °F 17.6 °F 80% 29.51 in 0.8 mi SW 9.2 mph - 0.00 in Snow Light Snow
5:05 PM 21.2 °F 9.5 °F 17.6 °F 86% 29.51 in 2.0 mi WSW 11.5 mph - 0.00 in Snow Light Snow
5:12 PM 21.2 °F 10.9 °F 17.6 °F 86% 29.52 in 5.0 mi WSW 9.2 mph 16.1 mph 0.00 in Snow Light Snow
5:23 PM 21.2 °F 10.9 °F 15.8 °F 80% 29.52 in 1.8 mi WSW 9.2 mph - 0.00 in Snow Light Snow
5:29 PM 21.2 °F 10.9 °F 15.8 °F 80% 29.52 in 2.0 mi WSW 9.2 mph 17.3 mph 0.00 in Snow Light Snow
5:37 PM 21.2 °F 11.7 °F 15.8 °F 80% 29.52 in 6.0 mi WSW 8.1 mph - 0.00 in Snow Light Snow
5:51 PM 21.0 °F 9.9 °F 14.0 °F 74% 29.59 in 9.0 mi WSW 10.4 mph 19.6 mph 0.00 in   Overcast
6:32 PM 19.4 °F 7.9 °F 14.0 °F 80% 29.53 in 2.0 mi WSW 10.4 mph 18.4 mph 0.00 in Snow Light Snow
6:35 PM 19.4 °F 9.5 °F 15.8 °F 86% 29.53 in 0.8 mi WSW 8.1 mph 18.4 mph 0.00 in Snow Light Snow
6:40 PM 19.4 °F 11.5 °F 15.8 °F 86% 29.53 in 0.5 mi WSW 5.8 mph 16.1 mph 0.01 in Fog , Snow Snow
6:48 PM 19.4 °F 7.9 °F 15.8 °F 86% 29.53 in 1.0 mi WSW 10.4 mph 16.1 mph 0.01 in Snow Light Snow
6:51 PM 19.0 °F 6.8 °F 15.1 °F 85% 29.60 in 3.0 mi SW 11.5 mph 16.1 mph 0.01 in Snow Light Snow
7:10 PM 19.4 °F 5.0 °F 12.2 °F 74% 29.53 in 10.0 mi SW 16.1 mph 20.7 mph 0.00 in   Overcast
7:23 PM 17.6 °F 6.4 °F 12.2 °F 79% 29.54 in 1.5 mi NNW 9.2 mph - 0.00 in Snow Light Snow
7:28 PM 15.8 °F 6.1 °F 10.4 °F 79% 29.54 in 0.5 mi North 6.9 mph - 0.00 in Fog , Snow Snow
7:30 PM 15.8 °F 5.1 °F 10.4 °F 79% 29.55 in 0.5 mi North 8.1 mph - 0.00 in Snow Snow
7:51 PM 14.0 °F 5.1 °F 9.0 °F 80% 29.63 in 1.0 mi North 5.8 mph - 0.00 in Snow Light Snow
8:05 PM 12.2 °F 0.7 °F 8.6 °F 85% 29.56 in 1.2 mi NNW 8.1 mph - 0.00 in Snow Light Snow
8:47 PM 10.4 °F 4.0 °F 6.8 °F 85% 29.58 in 3.0 mi Variable 3.5 mph - 0.00 in Snow Light Snow
8:48 PM 10.9 °F 4.7 °F 6.1 °F 81% 29.66 in 3.0 mi Variable 3.5 mph - 0.00 in Snow Light Snow
9:51 PM 8.1 °F 1.4 °F 3.0 °F 80% 29.68 in 7.0 mi Variable 3.5 mph - 0.00 in   Overcast
10:51 PM 7.0 °F -3.3 °F 1.0 °F 77% 29.68 in 7.0 mi West 5.8 mph - N/A   Overcast
11:32 PM 6.8 °F -0.1 °F 1.4 °F 79% 29.60 in 9.0 mi West 3.5 mph - N/A   Overcast
11:51 PM 5.0 °F -4.1 °F 1.0 °F 84% 29.68 in 9.0 mi WSW 4.6 mph - N/A   Mostly Cloudy